Home   Weather   Vaduz   Past weeks

Flag for Liechtenstein Past Weather in Vaduz, Liechtenstein — Yesterday and Last 2 Weeks

Now
33 °F

Chilly.


Feels Like: 33 °F
Forecast: 41 / 60 °F
Wind: 1 mph from West

Location: Vaduz

Current Time: Apr 24, 2017 at 7:35:16 am

Latest Report: Apr 24, 2017 at 6:00 am


Visibility: N/A

Pressure: 30.16 "Hg

Humidity: 94%

Dew Point: 31 °F

Location of VaduzLocation

Past Weather in Vaduz — Graph

°F

Vaduz Temperature Yesterday

Maximum temperature yesterday: 58 °F (at 4:00 pm)
Minimum temperature yesterday: 40 °F (at 5:00 am)
Average temperature yesterday: 47 °F

High & Low Weather Summary for the Past Weeks

 TemperatureHumidityPressure
High75 °F (Apr 10, 3:00 pm)97% (Apr 19, 6:00 am)30.62 "Hg (Apr 19, 6:00 am)
Low28 °F (Apr 20, 7:00 am)21% (Apr 21, 3:00 pm)29.90 "Hg (Apr 13, 5:00 pm)
Average49 °F66%30.20 "Hg
* Reported Apr 9 6:00 am — Apr 24 6:00 am, Vaduz, Weather by CustomWeather, © 2017

Note: Actual official high and low records may vary slightly from our data, if they occured in-between our weather recording intervals... More about our weather records

Advertising

Vaduz Weather History for the Previous 24 Hours

Scroll right to see more
 ConditionsComfort  
Time TempWeatherWind HumidityBarometerVisibility
6:00 am
Mon, Apr 24
33 °FChilly.1 mph94%30.16 "HgN/A
5:00 am35 °FClear.No wind93%30.17 "Hg9 mi
4:00 am36 °FChilly.1 mph90%30.18 "HgN/A
3:00 am36 °FChilly.No wind90%30.20 "HgN/A
2:00 am38 °FPassing clouds.1 mph88%30.21 "Hg9 mi
1:00 am39 °FChilly.No wind85%30.22 "HgN/A
12:00 am41 °FQuite cool.2 mph75%30.22 "HgN/A
11:00 pm
Sun, Apr 23
42 °FPassing clouds.1 mph75%30.22 "Hg9 mi
10:00 pm44 °FQuite cool.1 mph61%30.22 "HgN/A
9:00 pm46 °FCool.1 mph61%30.20 "HgN/A
8:00 pm50 °FSunny.7 mph48%30.17 "Hg12 mi
7:00 pm53 °FCool.8 mph47%30.16 "HgN/A
6:00 pm55 °FCool.10 mph47%30.15 "HgN/A
5:00 pm56 °FScattered clouds.10 mph46%30.14 "Hg6 mi
4:00 pm58 °FRefreshingly cool.8 mph47%30.15 "HgN/A
3:00 pm56 °FRefreshingly cool.8 mph47%30.17 "HgN/A
2:00 pm54 °FFog.6 mph47%30.19 "Hg6 mi
1:00 pm51 °FCool.5 mph48%30.22 "HgN/A
12:00 pm51 °FCool.7 mph54%30.23 "HgN/A
11:00 am47 °FFog.5 mph63%30.25 "Hg5 mi
10:00 am45 °FQuite cool.5 mph70%30.27 "HgN/A
9:00 am43 °FQuite cool.3 mph82%30.27 "HgN/A
8:00 am41 °FFog.2 mph84%30.27 "Hg4 mi
7:00 am40 °FQuite cool.3 mph80%30.27 "HgN/A
Weather by CustomWeather, © 2017

See weather overviewHow to use our weather pages